Location: Bosdarros
(43.2167°N, 0.3667°W)
Time: 16:33:42
(UTC+00:00)

Cosmos 2315 Rocket - Pass Details

Date: 22 April 2021
Orbit: 967 x 1001 km, 82.9° (Epoch: 12 May)

Event Time Altitude Azimuth Distance (km) Brightness Sun altitude
Exits shadow 23:16:01 66° 342° (NNW) 1,085 4.3 -33.4°
Drops below altitude 10° 23:21:30 10° 5° (N) 2,775 7.1 -33.6°
Sets 23:24:03 0° 7° (N) 3,732 8.0 -33.7°
